[[{"header":{"parameterUnit":"m.s-1","parameterCategory":1,"la1":30.2991,"la2":30.254,"lo1":-89.0895,"lo2":-89.0444,"dy":0.0017,"dx":0.0017,"nx":28,"ny":28,"refTime":"2026-01-02T09:00:00:Z","depth":0,"parameterNumber":2,"parameterNumberName":"U-component_of_WINDS"},"data":[0,0,0,0,0,0,0,0,0,0,0,0,0,0,0,0,0,0,0,0,0,0,0,0,0,0,0,0,0,0,0,0,0,0,0,0,0,0,0,0,0,0,0,0,0,0,0,0,0,0,0,0,0,0,0,0,0,0,2.5915,2.5916,0,2.5925,2.5925,2.5925,2.589,2.5888,2.5887,2.5886,2.5897,2.5898,2.5899,0,0,0,0,0,0,0,0,0,0,0,0,0,2.5867,2.5868,2.5915,2.5916,2.5916,2.5925,2.5925,2.5925,2.589,2.5888,2.5887,2.5886,2.5896,2.5898,2.5899,0,0,0,0,0,0,0,0,0,0,0,0,0,2.5883,2.5868,2.5915,2.5899,2.5898,2.5925,2.5925,2.5925,2.589,2.5888,2.5887,2.5885,2.5896,2.5898,2.5899,2.5943,0,0,2.5905,2.5906,0,0,0,0,0,0,0,0,2.5882,2.5885,2.5901,2.59,2.5899,2.5904,2.5912,2.5931,2.589,2.5893,2.5886,2.5885,2.5901,2.5902,2.5907,2.5943,2.5944,2.5905,2.5907,2.5907,2.5908,0,0,0,0,0,0,0,2.5881,2.5885,2.5919,2.5902,2.59,2.5891,2.5892,2.5915,2.5906,2.5893,2.589,2.5892,2.59,2.5906,2.5907,2.5944,2.5905,2.5907,2.5908,2.5909,2.6016,2.6018,0,0,0,0,0,0,2.5882,2.5884,2.5919,2.5919,2.5887,2.5894,2.5894,2.5904,2.5905,2.5904,2.5893,2.589,2.5903,2.5905,2.5907,2.5958,2.5907,2.5909,2.591,2.6014,2.6016,2.6018,0,0,0,0,0,0,2.5881,2.5886,2.5919,2.5901,2.5904,2.5896,2.5908,2.5905,2.5911,2.5905,2.5904,2.5901,2.5902,2.5905,2.5934,2.5958,2.591,2.5912,2.6012,2.6015,2.6017,2.606,0,0,0,0,0,0,2.588,2.5886,2.5902,2.5902,2.5906,2.5945,2.5909,2.5907,2.5914,2.5911,2.5912,2.5911,2.5901,2.5932,2.5936,2.596,2.5913,2.601,2.6014,2.6017,2.6057,2.6064,2.607,0,0,0,0,0,2.5879,2.5914,2.5903,2.5908,2.5926,2.5947,2.5949,2.5936,2.5917,2.5933,2.5929,2.5911,2.5955,2.5935,2.594,2.5964,2.6009,2.6013,2.6016,2.6054,2.6062,2.607,0,0,0,0,0,0,2.5917,2.5914,2.5902,2.5938,2.5943,2.5941,2.5961,2.5946,2.5957,2.5953,2.5937,2.5938,2.597,2.597,2.5948,2.6006,2.5978,2.5983,2.6005,2.6013,2.602,2.6019,2.5915,0,0,0,0,0,2.593,2.5947,2.5943,2.5975,2.5979,2.597,2.5978,2.5968,2.5972,2.5974,2.5973,2.5978,2.5993,2.6003,2.6017,2.6056,2.6056,2.6076,2.6082,2.6088,2.6092,2.6113,2.6122,2.6031,2.6031,2.6031,0,0,2.5957,2.5957,2.5969,2.5983,2.5986,2.6004,2.5971,2.5992,2.6005,2.5978,2.6005,2.6004,2.6009,2.6044,2.6059,2.6045,2.6118,2.6093,2.6097,2.6099,2.6118,2.6127,2.6134,2.6034,2.6033,2.6033,0,0,2.6014,2.6016,2.6043,2.6047,2.6051,2.6045,2.6051,2.6052,2.605,2.6077,2.6057,2.6072,2.6098,2.6103,2.6108,2.6168,2.6151,2.6172,2.6208,2.6228,2.6235,2.6242,2.6263,2.627,2.6177,2.6177,2.6177,0,2.6047,2.6073,2.6059,2.6081,2.6088,2.6064,2.6091,2.6095,2.6104,2.6109,2.6093,2.6125,2.6127,2.6162,2.6176,2.6182,2.6189,2.6172,2.6235,2.6242,2.6247,2.6267,2.6275,2.618,2.6179,2.6179,2.6179,0,2.6113,2.6132,2.6153,2.6162,2.6171,2.6196,2.6185,2.6196,2.6186,2.6181,2.6209,2.621,2.6223,2.6231,2.6221,2.6265,2.6256,2.6238,2.621,2.6259,2.6277,2.6284,2.6183,2.6182,2.6182,2.6181,0,0,2.6195,2.6196,2.6204,2.6207,2.6211,2.6225,2.6248,2.6261,2.6271,2.6278,2.6297,2.6319,2.6303,2.6309,2.6299,2.6317,2.6364,2.6297,2.6297,2.6309,2.6412,2.6426,2.6435,2.6353,2.6354,2.6356,2.6412,0,2.6251,2.6291,2.6279,2.6319,2.6336,2.6313,2.6334,2.6338,2.6334,2.6348,2.6344,2.6361,2.6337,2.6341,2.6358,2.6355,2.6384,2.635,2.6371,2.6372,2.637,2.6444,2.6458,2.6511,2.6419,2.642,2.6421,0,2.6322,2.6331,2.6373,2.6374,2.638,2.6399,2.6409,2.6423,2.6428,2.6424,2.6431,2.6417,2.644,2.6412,2.6443,2.642,2.6428,2.6428,2.6429,2.6431,2.6399,2.6447,2.6528,2.6536,2.6432,2.6431,2.6431,0,2.6377,2.64,2.6428,2.6432,2.6434,2.6447,2.6448,2.6451,2.6459,2.6469,2.6474,2.6486,2.6493,2.6502,2.6492,2.6472,2.6525,2.6496,2.6522,2.6523,2.6534,2.6534,2.6617,2.654,2.654,2.654,2.654,0,2.6441,2.6467,2.6453,2.647,2.6499,2.6486,2.6515,2.6513,2.6516,2.6532,2.6514,2.653,2.6515,2.653,2.6522,2.655,2.6553,2.655,2.6548,2.6552,2.6552,2.6556,2.6552,2.6542,2.6541,2.6541,2.6541,0,2.6507,2.6499,2.6528,2.6527,2.6527,2.6548,2.6547,2.6563,2.6558,2.6579,2.6584,2.6576,2.6592,2.6583,2.66,2.6595,2.663,2.6623,2.6629,2.6627,2.6653,2.6651,2.6742,2.6754,2.6669,2.667,2.6671,0,2.6548,2.6568,2.6569,2.6578,2.6581,2.6597,2.6605,2.6592,2.6602,2.6608,2.6624,2.6638,2.6649,2.6677,2.6673,2.6685,2.6678,2.6709,2.668,2.6683,2.6678,2.6677,2.6679,2.6715,2.6716,2.6717,2.6718,0,2.6621,2.6616,2.6629,2.6641,2.6651,2.666,2.6667,2.6676,2.6663,2.6675,2.6691,2.67,2.6717,2.6732,2.6743,2.6744,2.6729,2.6727,2.6734,2.6738,2.674,2.6739,2.6644,2.6725,2.6724,2.6724,2.6723,2.6723,2.6676,2.6692,2.6696,2.6711,2.6714,2.6721,2.6736,2.6733,2.6747,2.676,2.6751,2.6771,2.6775,2.6788,2.6791,2.6806,2.6793,2.6803,2.6806,2.6808,2.6812,2.6738,2.6808,2.6808,2.6808,2.6807,2.6807,0,2.6748,2.6749,2.6763,2.6773,2.6785,2.677,2.6777,2.6788,2.6805,2.681,2.6821,2.684,2.6854,2.6852,2.6865,2.6877,2.6871,2.6881,2.688,2.688,2.6822,2.6815,2.6886,2.6886,2.6886,2.6886,2.6886,2.6886,2.6787,2.6814,2.6809,2.6838,2.6839,2.6858,2.6863,2.6869,2.6873,2.6895,2.6907,2.6905,2.6907,2.692,2.6933,2.6931,2.6937,2.695,2.6946,2.6892,2.6884,2.6877,2.687,2.6951,2.6951,2.7003,2.7003,2.7003]},{"header":{"parameterUnit":"m.s-1","parameterCategory":1,"la1":30.2991,"la2":30.254,"lo1":-89.0895,"lo2":-89.0444,"dy":0.0017,"dx":0.0017,"nx":28,"ny":28,"refTime":"2026-01-02T09:00:00:Z","depth":0,"parameterNumber":3,"parameterNumberName":"V-component_of_WINDS"},"data":[0,0,0,0,0,0,0,0,0,0,0,0,0,0,0,0,0,0,0,0,0,0,0,0,0,0,0,0,0,0,0,0,0,0,0,0,0,0,0,0,0,0,0,0,0,0,0,0,0,0,0,0,0,0,0,0,0,0,6.9068,6.9071,0,6.9269,6.9271,6.9273,6.9283,6.928,6.9278,6.9276,6.9482,6.9489,6.9497,0,0,0,0,0,0,0,0,0,0,0,0,0,6.8695,6.8702,6.9068,6.9071,6.9073,6.9268,6.9271,6.9274,6.9283,6.928,6.9277,6.9275,6.9479,6.9488,6.9498,0,0,0,0,0,0,0,0,0,0,0,0,0,6.8872,6.8704,6.9068,6.9101,6.9106,6.9268,6.9271,6.9275,6.9284,6.928,6.9277,6.9273,6.9476,6.9488,6.9499,6.9641,0,0,6.9534,6.9539,0,0,0,0,0,0,0,0,6.8862,6.8886,6.9094,6.9099,6.9105,6.9247,6.9215,6.9397,6.9285,6.9216,6.9276,6.9272,6.9407,6.9424,6.9469,6.965,6.9659,6.9535,6.9542,6.9547,6.955,0,0,0,0,0,0,0,6.885,6.8877,6.9148,6.9097,6.9104,6.9107,6.9128,6.925,6.9329,6.9222,6.9223,6.9247,6.9409,6.9458,6.9474,6.9662,6.9535,6.9545,6.9552,6.9557,6.9972,6.9976,0,0,0,0,0,0,6.8831,6.8867,6.9141,6.9154,6.8973,6.9116,6.914,6.9205,6.9328,6.9343,6.925,6.9246,6.944,6.9461,6.9481,6.9657,6.9547,6.9558,6.9564,6.9968,6.9973,6.9977,0,0,0,0,0,0,6.8823,6.8855,6.9133,6.9011,6.9046,6.9127,6.9199,6.9211,6.926,6.9348,6.9363,6.9285,6.9438,6.9465,6.9601,6.9664,6.9563,6.9573,6.9963,6.9969,6.9975,7.0009,0,0,0,0,0,0,6.8812,6.8852,6.8907,6.9012,6.9053,6.925,6.9203,6.9217,6.928,6.9277,6.9385,6.94,6.9437,6.9584,6.9613,6.9678,6.9582,6.9958,6.9966,6.9973,7.0002,7.0015,7.0026,0,0,0,0,0,6.8799,6.8908,6.8909,6.8942,6.9123,6.9253,6.9277,6.9317,6.9284,6.934,6.9397,6.9396,6.9652,6.9598,6.963,6.97,6.9954,6.9964,6.9973,6.9997,7.0013,7.0026,0,0,0,0,0,0,6.8808,6.8922,6.8925,6.9072,6.9153,6.9254,6.9326,6.9332,6.9425,6.9419,6.9465,6.949,6.9625,6.9676,6.9614,6.9845,6.98,6.9816,6.9807,6.9823,6.9834,6.982,6.9592,0,0,0,0,0,6.8827,6.8923,6.9018,6.9138,6.9179,6.9245,6.9304,6.9328,6.9414,6.9448,6.9515,6.9599,6.9699,6.9763,6.9859,7.0009,7.0034,7.0073,7.0085,7.0094,7.0109,7.0193,7.0213,7.0008,7.0008,7.0008,0,0,6.8867,6.8942,6.9,6.9142,6.9208,6.9307,6.9274,6.938,6.9455,6.9465,6.9598,6.965,6.9747,6.9891,6.9957,6.9937,7.017,7.0106,7.0113,7.0122,7.0205,7.0224,7.0241,7.0014,7.0013,7.0012,0,0,6.8992,6.9058,6.9166,6.9232,6.9332,6.9376,6.9402,6.9503,6.9538,6.9673,6.9683,6.9772,6.9942,7.0011,7.0068,7.022,7.0223,7.025,7.0313,7.0395,7.0411,7.0426,7.0482,7.0501,7.0263,7.0263,7.0263,0,6.903,6.918,6.922,6.9327,6.939,6.9403,6.9514,6.9576,6.9703,6.9746,6.9721,6.9936,7.0002,7.0163,7.02,7.0245,7.0277,7.0238,7.0405,7.042,7.0435,7.0488,7.0509,7.0266,7.0265,7.0265,7.0265,0,6.9223,6.9326,6.9402,6.9524,6.9595,6.9703,6.976,6.9827,6.9846,6.9892,7.003,7.0109,7.0222,7.0262,7.028,7.0427,7.0411,7.0395,7.0351,7.0456,7.0508,7.0529,7.027,7.0269,7.0268,7.0267,0,0,6.936,6.9503,6.953,6.9586,6.9698,6.9779,6.9888,6.9999,7.0056,7.0143,7.0236,7.038,7.0366,7.0431,7.0458,7.053,7.0647,7.0505,7.0508,7.053,7.0815,7.0828,7.0851,7.0649,7.0653,7.0656,7.0808,0,6.9498,6.9692,6.9732,6.9901,6.9998,7.0012,7.0107,7.0186,7.0233,7.0322,7.0373,7.0476,7.0449,7.0488,7.056,7.0617,7.0705,7.0607,7.0738,7.0742,7.0715,7.0878,7.0891,7.103,7.0828,7.0831,7.0834,0,6.9686,6.9778,6.9956,7.0056,7.0098,7.0183,7.0288,7.0373,7.0464,7.0492,7.0565,7.0584,7.0699,7.0648,7.0807,7.074,7.0796,7.0832,7.0838,7.0854,7.0795,7.0899,7.1075,7.1097,7.0865,7.0863,7.0861,0,6.977,6.9938,7.0067,7.0114,7.0233,7.0293,7.0345,7.0432,7.0497,7.0589,7.0631,7.0735,7.0793,7.0873,7.092,7.0878,7.1077,7.1029,7.1105,7.1105,7.1148,7.1145,7.1337,7.1181,7.118,7.118,7.118,0,6.9922,7.0031,7.0107,7.0186,7.0309,7.0354,7.0474,7.0526,7.0603,7.0694,7.0712,7.0796,7.0852,7.0945,7.0982,7.1109,7.1135,7.1162,7.1171,7.1162,7.1159,7.12,7.1193,7.1186,7.1184,7.1183,7.1182,0,7.0038,7.0093,7.0234,7.0336,7.0364,7.045,7.0537,7.0615,7.0661,7.0776,7.0805,7.0878,7.0988,7.1043,7.1179,7.1204,7.1349,7.1351,7.1319,7.1323,7.1397,7.139,7.1624,7.1658,7.1477,7.1479,7.148,0,7.0132,7.0216,7.0327,7.0388,7.0442,7.0542,7.0608,7.0655,7.0723,7.0833,7.0898,7.1009,7.11,7.1276,7.1342,7.1447,7.1453,7.1527,7.1469,7.1457,7.1456,7.1451,7.1461,7.1539,7.154,7.1542,7.1543,0,7.0293,7.0317,7.0411,7.0516,7.0595,7.0679,7.0763,7.0812,7.0873,7.0949,7.1062,7.1133,7.1273,7.1383,7.1493,7.1548,7.1557,7.1561,7.1584,7.1577,7.1555,7.157,7.135,7.1555,7.1554,7.1553,7.1553,7.1552,7.0403,7.0479,7.0569,7.0674,7.0742,7.082,7.0899,7.0955,7.105,7.1168,7.119,7.131,7.1399,7.1548,7.1606,7.1701,7.1685,7.1718,7.1727,7.1735,7.174,7.1538,7.1721,7.1721,7.1721,7.172,7.172,0,7.0567,7.0626,7.0722,7.0839,7.0922,7.0922,7.1014,7.1084,7.119,7.1272,7.1362,7.1492,7.16,7.1674,7.1783,7.1845,7.1852,7.1873,7.187,7.1883,7.1748,7.1717,7.1865,7.1865,7.1865,7.1865,7.1865,7.1865,7.0663,7.0792,7.0826,7.099,7.1048,7.1166,7.1219,7.1292,7.1358,7.1503,7.1592,7.164,7.172,7.1835,7.1934,7.1953,7.1993,7.2015,7.2034,7.1907,7.1892,7.1877,7.1849,7.2022,7.2023,7.2161,7.2162,7.2163]}]]